Location: *
(52.2090°N, 4.1550°W)
Time: 09:34:55
(UTC+00:00)

Cosmos 1933 - Pass Details

Date: 19 July 2019
Orbit: 546 x 565 km, 82.5° (Epoch: 21 August)

Event Time Altitude Azimuth Distance (km) Brightness Sun altitude
Rises 21:15:32 0° 351° (N) 2,759 7.9 -6.4°
Reaches altitude 10° 21:17:45 10° 355° (N) 1,855 6.9 -6.6°
Maximum altitude 21:21:48 61° 77° (ENE) 637 3.5 -7.1°
Drops below altitude 10° 21:25:47 10° 158° (SSE) 1,829 5.4 -7.5°
Enters shadow 21:26:08 - 159° (SSE) 1,972 5.5 -7.5°
